Regional Weather Roundup
Issued by NWS Goodland, KS

Home | Current Version | Previous Version | Text Only | Print | Product List | Glossary On
Versions: 1 2 3 4 5 6 7 8 9 10 11 12 13 14 15 16 17 18 19 20 21 22 23 24 25 26 27 28 29 30 31 32 33 34 35 36 37 38 39 40 41 42 43 44 45 46 47 48 49 50
000
ASUS43 KGLD 190608
RWRGLD

GOODLAND FORECAST AREA HOURLY WEATHER ROUNDUP
NATIONAL WEATHER SERVICE GOODLAND KS
1200 AM MDT SAT AUG 19 2017

...OFFICIAL OBSERVATIONS...

CITY           SKY/WX    TMP DP  RH WIND       PRES   REMARKS
GOODLAND KS    CLEAR     63  56  78 S9        30.09S
HILL CITY KS   CLEAR     63  59  87 CALM      30.02S
IMPERIAL NEB   CLEAR     68  55  63 S9        30.05F
MCCOOK NEB     CLEAR     65  58  78 SW8       30.02S
AKRON CO       CLEAR     65  50  58 S13       30.13S
BURLINGTON CO  CLEAR     62  56  80 S9        30.13S
LIMON CO       CLEAR     56  54  93 CALM      30.20S
$$

...UNOFFICIAL OBSERVATIONS...

CITY           SKY/WX    TMP DP  RH WIND       PRES   REMARKS
LENORA KS        N/A     67  32  27 CALM        N/A
NORTON KS      CLEAR     61  54  77 SW6       30.01S
SHARON SPRINGS   N/A     64  56  77 SE6         N/A
TRENTON NEB      N/A     66  32  28 CALM        N/A
KIT CARSON CO    N/A     65  55  70 CALM        N/A
YUMA CO        FAIR      57  43  58 S7        30.11S
$$



USA.gov is the U.S. government's official web portal to all federal, state and local government web resources and services.